EHI
48 46 42 38 37 37 34 30 28 28 29 31 30 27 25 25 26 25 22 20 19 16 14 14 15 14 12 13 14 11 7 4 4 4 3 4 7 10 10 10 9 7 6
46 45 42 38 37 36 35 34 34 31 28 28 28 26 26 26 27 26 23 21 19 17 15 15 16 15 14 14 13 10 7 5 4 4 4 5 8 11 11 10 9 7 6
44 44 42 38 35 34 35 38 38 34 29 27 26 26 27 28 28 26 24 22 20 18 18 19 19 18 16 15 12 10 8 6 4 4 4 6 8 10 11 10 9 8 6
41 41 39 36 33 32 33 36 36 33 29 26 25 25 27 28 26 25 25 24 22 21 20 21 19 17 15 13 11 10 8 6 4 3 4 5 6 7 8 8 8 8 7
38 37 36 34 32 31 32 32 31 29 26 24 23 23 23 23 21 21 22 22 23 23 22 21 18 13 10 8 7 6 6 5 4 4 3 3 4 5 6 6 6 6 6
37 36 35 34 32 31 31 29 28 27 24 22 20 19 17 16 15 15 17 19 21 23 24 22 16 9 5 4 3 2 2 3 4 4 3 3 3 4 4 3 3 3 2
37 36 35 34 33 32 31 29 27 26 24 21 19 17 15 12 10 9 10 14 17 20 22 22 15 8 4 4 3 2 2 3 3 4 5 5 5 4 3 2 2 1 1
36 36 36 34 33 33 33 31 28 26 25 23 21 19 16 12 8 5 5 8 12 15 18 18 14 9 6 4 3 3 4 4 2 2 4 6 6 5 4 2 2 2 2
34 36 36 34 32 32 33 32 30 27 26 23 21 19 17 13 7 3 3 5 8 9 11 12 10 7 4 2 1 1 3 4 2 1 2 4 4 3 3 2 2 3 2
32 33 34 33 32 31 31 32 31 28 26 22 19 19 17 13 8 3 2 5 7 7 7 6 4 2 1 0 0 0 1 2 3 2 2 2 3 3 3 3 5 6 6
32 32 31 32 30 29 29 30 29 28 26 23 21 19 17 13 7 2 1 3 5 6 6 3 1 0 0 0 0 0 0 1 2 2 2 3 4 5 6 7 10 12 12
33 32 31 30 27 26 26 27 26 26 25 24 22 19 17 13 7 2 0 1 2 4 4 2 1 0 0 0 0 0 0 0 0 1 2 3 5 6 6 9 12 15 16
33 33 32 30 27 25 25 24 23 23 22 21 20 18 17 14 8 3 1 0 1 2 2 1 0 0 0 0 0 0 0 0 0 1 1 3 4 5 5 7 10 12 14
32 33 33 31 28 26 24 21 20 20 20 18 17 17 16 13 8 4 2 0 0 0 1 1 1 0 0 0 0 0 0 0 0 1 2 2 3 3 4 6 7 7 8
32 32 30 28 26 25 22 18 15 15 15 15 15 14 13 10 6 3 1 0 0 0 1 2 1 0 0 0 0 0 0 0 0 1 2 1 1 2 3 5 5 4 4
30 29 26 24 23 23 20 15 10 8 7 7 8 9 8 5 3 1 0 0 0 0 1 1 1 0 0 0 0 0 0 0 1 2 2 2 1 1 3 4 4 4 4
25 24 22 21 21 20 19 16 11 6 3 2 2 3 3 2 1 0 0 0 0 0 0 0 0 0 0 0 0 0 0 0 1 2 3 2 1 1 1 2 3 3 3
19 19 20 21 20 20 19 18 15 11 7 4 2 1 1 1 0 0 0 0 0 0 0 0 0 0 0 0 0 0 0 0 1 2 2 1 0 0 0 1 1 2 1
14 16 18 19 19 19 19 19 17 14 10 6 4 1 0 0 0 0 0 0 0 0 0 0 0 0 0 0 0 0 0 0 0 1 1 0 0 0 0 0 0 0 0
13 13 15 16 17 19 19 18 16 13 10 7 4 2 1 0 0 0 0 0 0 0 0 0 0 0 0 0 1 0 0 0 0 0 0 0 0 0 0 0 0 0 0
11 11 12 14 16 18 18 16 13 11 9 7 4 3 1 0 0 0 0 0 0 0 0 0 0 0 0 0 0 0 0 0 0 0 0 0 0 0 0 0 0 0 0
9 9 10 13 15 16 15 13 11 10 8 6 5 3 1 0 1 1 0 0 0 0 0 0 0 0 0 0 0 0 0 0 0 0 0 0 0 0 0 0 0 0 0
9 9 10 12 13 13 11 9 9 9 7 4 4 3 1 0 0 1 1 0 0 0 0 0 0 0 0 0 0 0 0 0 0 0 0 0 0 0 0 0 0 0 0
6 7 8 9 10 9 7 6 7 7 5 2 2 2 1 0 0 0 0 0 0 0 0 0 0 0 0 0 0 0 0 0 0 0 0 0 0 0 0 0 0 0 0
4 5 6 7 7 6 5 5 6 6 4 2 1 1 1 0 0 0 0 0 0 0 0 0 0 0 0 0 0 0 0 0 0 0 0 0 0 0 0 0 0 0 0
3 4 6 6 5 4 4 5 6 6 5 2 0 0 0 0 0 0 0 0 0 0 0 0 0 0 0 0 0 0 0 0 0 0 0 0 0 0 0 0 0 0 0
Wind_Speed
5 5 4 4 4 3 2 2 1 1 1 1 1 1 2 2 1 2 3 2 2 2 2 1 2 2 2 2 1 1 1 1 1 2 1 0 1 2 3 2 3 4 4
4 4 4 4 4 4 3 2 2 1 1 1 1 2 2 2 2 2 3 3 2 2 2 2 2 2 2 2 1 2 1 1 2 2 2 1 2 2 3 3 3 3 3
5 4 3 3 4 3 2 2 2 2 2 2 2 2 2 2 2 2 2 2 2 2 2 2 2 2 2 2 2 2 2 2 2 2 2 2 1 2 2 3 2 1 3
4 4 3 2 2 2 1 1 2 2 2 3 3 3 2 2 2 2 2 2 2 2 2 2 2 2 2 2 3 2 2 2 2 2 3 2 2 2 2 2 2 2 3
4 4 3 3 2 1 2 2 2 2 3 2 2 3 3 3 2 2 2 3 2 2 2 2 2 2 2 2 3 2 2 2 3 3 3 2 2 2 3 3 3 2 3
3 3 3 2 2 2 2 2 2 2 2 2 3 3 3 3 1 1 1 3 2 3 3 2 2 2 2 3 3 3 4 4 4 3 3 3 3 2 2 2 2 2 3
3 3 2 2 2 2 3 2 2 2 2 3 3 3 3 3 2 1 2 3 3 3 3 2 3 3 2 2 3 5 5 6 5 4 4 4 4 3 3 3 3 3 3
3 3 2 2 2 2 2 2 3 2 3 3 3 3 3 3 4 2 2 3 4 4 3 3 2 2 3 2 3 3 3 4 5 5 5 5 5 4 4 4 4 4 3
3 3 3 3 3 3 3 3 3 3 3 4 3 4 4 3 4 4 3 3 3 4 4 3 2 2 3 3 3 3 4 4 4 5 6 6 6 6 4 2 2 3 3
3 2 2 2 3 3 3 3 3 3 4 4 4 4 4 3 5 6 5 3 3 3 2 2 3 3 3 3 3 3 4 4 3 3 3 5 6 7 8 6 4 4 3
2 2 2 2 3 3 3 3 3 4 4 4 4 4 4 4 5 7 7 3 3 3 2 2 1 1 3 3 3 3 4 4 4 4 3 4 4 4 5 6 6 5 4
2 2 3 3 4 4 3 3 4 4 5 5 4 5 4 3 4 6 8 7 5 3 3 2 2 2 3 5 4 4 5 4 3 3 3 3 3 3 4 4 5 5 5
2 3 3 3 3 3 4 4 4 4 5 4 4 4 3 2 3 5 6 7 6 3 3 3 4 4 4 4 6 7 5 3 3 4 4 4 3 3 3 3 4 4 5
2 3 3 3 4 4 3 4 4 4 4 3 3 3 2 2 2 2 2 2 2 2 2 3 4 5 5 5 5 4 4 3 3 4 4 3 2 2 2 2 3 3 3
3 4 4 4 4 3 2 2 3 2 2 3 3 2 2 2 2 3 2 1 1 1 1 3 3 2 3 3 3 3 3 3 4 3 3 3 2 2 2 2 1 2 2
4 4 4 4 3 3 3 2 1 2 3 3 3 3 2 3 4 3 3 3 4 3 2 3 3 3 3 3 3 3 2 2 2 2 2 3 2 2 2 2 1 2 2
4 5 5 4 4 4 4 4 2 2 2 3 4 4 4 4 4 3 3 3 4 4 3 3 4 3 3 3 3 3 2 2 2 2 2 2 2 2 2 2 2 2 2
5 5 5 4 4 4 3 3 3 3 3 2 3 5 6 6 5 5 3 1 2 3 4 3 3 3 3 2 2 2 2 2 2 2 2 2 2 2 2 3 3 3 3
5 4 4 4 4 3 3 3 3 3 2 2 2 3 5 5 5 5 4 3 4 3 3 3 3 3 2 2 2 2 2 2 2 2 3 3 3 3 3 2 2 3 3
4 5 5 4 4 4 4 4 3 3 3 3 2 2 4 4 4 4 4 4 4 3 3 3 2 2 2 2 2 2 2 2 2 3 3 3 2 2 2 3 2 2 2
4 4 5 5 4 4 4 4 4 3 3 2 2 3 4 4 4 4 4 4 4 3 3 2 2 2 2 2 2 2 3 3 2 2 2 2 2 2 2 2 2 2 2
4 4 4 4 3 2 3 4 4 3 3 3 2 3 5 4 3 3 3 3 3 2 2 2 2 2 1 1 2 2 2 2 2 2 2 2 2 2 2 2 2 2 2
4 4 3 3 3 3 4 3 3 2 2 2 2 2 3 3 3 2 2 2 2 2 2 2 2 1 1 1 1 1 1 2 2 2 2 3 2 2 2 2 3 3 3
4 4 3 2 3 3 3 2 2 2 2 2 2 2 2 2 2 2 2 1 1 1 1 1 1 1 1 1 1 0 1 1 2 2 3 3 3 3 2 3 3 3 3
3 3 3 3 3 2 2 2 2 2 2 2 2 2 2 2 2 2 2 1 1 1 1 0 0 1 1 1 1 0 1 1 1 2 2 3 3 3 3 4 3 3 3
3 3 2 2 2 2 1 1 2 2 2 2 1 1 1 1 1 1 1 1 1 1 0 0 1 1 0 0 0 0 0 0 1 2 3 3 3 3 3 3 4 4 4
Wind_Direction
177 177 180 183 196 204 211 213 231 240 215 187 204 225 219 222 238 256 276 278 263 271 276 268 271 280 295 298 286 284 271 214 224 270 299 198 169 166 158 177 175 177 186
166 169 189 186 191 201 205 203 206 233 236 206 211 237 243 233 236 242 261 281 269 267 270 271 266 274 277 288 287 275 269 238 200 227 253 236 203 184 178 200 202 198 193
160 167 175 187 197 206 210 209 204 219 240 238 227 228 241 247 246 250 250 267 266 270 273 266 260 264 266 274 275 266 265 260 224 212 238 229 210 200 193 211 209 226 229
157 163 161 182 202 208 212 214 217 222 236 241 240 239 234 238 243 248 254 253 255 265 271 267 261 253 250 252 257 253 252 262 254 230 223 214 209 205 198 208 218 225 233
161 168 174 184 195 212 216 214 214 229 236 239 245 248 247 233 236 236 255 257 264 265 267 268 264 257 249 249 261 257 258 257 258 251 229 229 224 206 210 211 223 226 227
161 175 168 178 193 211 230 222 206 217 236 240 239 245 254 258 235 222 254 274 264 260 264 269 267 236 224 234 268 265 254 246 248 252 253 238 239 236 229 232 228 227 242
168 172 168 191 211 224 242 226 216 221 220 228 235 237 235 232 206 218 242 268 266 261 261 262 269 265 230 245 251 253 254 251 240 239 251 252 243 240 237 243 238 233 234
176 174 179 201 215 220 238 233 225 227 232 236 235 232 235 221 206 216 229 252 260 262 259 244 244 260 264 265 262 257 256 252 241 234 240 249 243 233 230 231 238 248 245
196 195 204 215 229 228 233 235 227 231 235 236 234 230 233 216 207 206 209 254 255 263 261 248 229 238 255 260 253 257 266 270 265 247 233 236 234 237 231 225 238 243 249
209 215 216 215 231 240 237 249 243 238 239 245 244 236 237 225 208 206 203 238 256 270 268 242 231 240 246 251 253 260 267 274 275 272 258 243 234 227 218 212 218 230 242
212 215 218 222 231 234 231 237 241 238 244 243 247 243 238 226 205 204 200 226 253 265 271 268 258 232 240 245 247 251 256 275 282 268 257 250 239 224 215 212 211 215 225
209 220 226 232 247 244 235 238 234 231 238 240 241 243 235 205 200 199 199 216 243 262 266 273 283 273 260 254 251 250 261 270 267 263 257 251 241 229 221 215 208 211 218
220 231 233 237 244 239 229 240 235 228 236 237 231 231 223 187 179 190 202 221 233 243 265 281 287 275 271 257 248 247 248 247 249 254 254 253 245 231 218 212 213 215 223
237 242 237 232 233 236 231 234 236 233 235 239 239 240 226 183 171 166 204 208 209 227 286 299 274 259 261 259 256 243 232 232 240 250 258 260 255 240 219 215 218 216 227
243 245 244 240 235 227 229 253 256 252 237 240 245 242 233 219 183 183 208 227 204 201 286 279 263 251 247 242 237 237 237 229 233 245 257 264 256 248 241 219 207 210 225
248 252 251 243 234 227 221 231 301 242 212 210 212 207 216 197 184 187 198 211 210 208 234 258 261 252 252 255 251 245 242 241 239 252 259 266 260 249 241 227 206 218 229
257 254 254 246 236 233 226 222 226 243 242 230 224 205 199 203 202 204 213 224 228 204 228 251 256 249 250 252 253 250 248 242 235 241 255 262 260 260 250 237 225 223 232
259 256 257 254 254 243 235 232 230 221 220 230 233 212 197 198 204 207 199 190 248 225 233 242 252 249 245 250 252 251 249 239 234 236 245 258 260 260 255 240 234 230 236
257 253 251 259 262 257 245 243 243 241 226 213 198 195 196 193 202 212 194 223 238 243 250 252 252 252 251 252 257 254 255 253 247 240 240 244 247 250 256 251 249 241 236
253 263 255 253 249 241 237 239 240 229 220 212 212 199 177 183 196 203 207 224 233 234 238 247 256 268 261 253 255 257 258 261 260 251 246 250 251 251 257 255 253 247 240
254 250 248 248 247 253 250 242 236 226 221 222 205 197 194 210 211 207 205 212 219 227 238 239 240 254 257 250 251 250 249 250 253 263 257 253 254 248 247 251 246 236 232
256 250 241 237 242 252 260 252 244 235 216 204 195 191 197 219 221 211 205 209 212 218 221 227 234 244 246 258 264 271 270 276 279 283 279 270 267 262 255 255 253 251 249
252 252 249 228 224 222 238 248 244 236 224 216 213 198 201 225 227 217 205 191 195 212 211 227 239 245 252 252 255 262 266 278 289 286 284 280 272 267 259 251 251 250 255
253 252 250 238 229 222 228 243 242 234 224 221 218 207 212 214 224 220 210 191 192 217 219 233 234 236 297 311 288 299 296 294 293 276 274 273 276 279 268 254 253 254 255
257 255 250 244 239 233 237 247 249 238 230 235 224 228 233 221 209 203 191 188 196 220 243 252 286 275 263 275 284 344 341 304 308 309 270 265 269 273 275 273 267 266 260
246 241 243 245 249 240 239 245 259 258 253 251 239 245 253 245 209 173 165 198 230 223 196 234 292 306 312 293 56 84 122 358 329 305 283 269 270 269 272 272 272 270 269